Starlink 5399

operational
NORAD ID: 54788 Int'l Des: 2022-175 Owner: SPXS Country: US Constellation: starlink
LEOCIRCULAR

About Starlink 5399

Description loading...

Live Position

Loading 3D Globe...

Upcoming Passes

Altitude History

Altitude vs Time

uPlot chart will show altitude changes over time

Two-Line Element Set

1 54788U 22175AG 25308.11338193 .00000119 00000-0 25562-4 0 9991
2 54788 53.2176 232.7223 0001621 87.1726 272.9452 15.08837622161179
Epoch: Nov 4, 2025 • Age: 11 hours

Current Status

Altitude 542.3 km
Velocity 7.60 km/s
Sub-Earth Point 39.26°N, 12.78°E
Launch Date Dec 17, 2022
Age 2.8 years
Type internet

Technical Details

Classification Payload
Mass 305.00 kg
Dry Mass 290.00 kg
Total Mass 305.00 kg
Length 0.20 m
Diameter 2.80 m
Span 9.00 m
Shape Box + pan
Manufacturer SPXS
Bus Type Starlink
Phase Status In Orbit
Owner/State SPXS/US

Large Constellations

Loading constellations...